User: anonymous   Login
Location: Melbourne
(37.8666°S, 145.1333°E)
Time: 22:16:57
(UTC+11:00)
Language:

ATLAS CENTAUR R/B - Orbit

View from above orbital plane
View from above orbital plane
View from above satellite
View from above satellite

Ground track
Ground track

The orbit data is extracted from the following two-line orbital elements,

1 28385U 04034B   17264.81322560 0.00061000  00000-0  81562-3 0    09
2 28385  57.3103 146.5025 3504578 188.7472 163.0979  8.49396084    05
Epoch (UTC): 21 September 2017 19:31:02
Eccentricity: 0.3504578
inclination: 57.3103°
perigee height: 212 km
apogee height: 7324 km
right ascension of ascending node: 146.5025°
argument of perigee: 188.7472°
revolutions per day: 8.49396084
mean anomaly at epoch: 163.0979°
orbit number at epoch: 0

The dashed part of the orbit path shows where the satellite is in the earth's shadow,  

DLR